Weather History for Palm Springs, CA

Change the Weather History Date:

Saturday, November 5, 2011

  Actual Average Record
Temperature  
Mean Temperature 56 °F 69 °F  
Max Temperature 68 °F 82 °F 96 °F (1991)
Min Temperature 44 °F 56 °F 34 °F (1936)
Degree Days  
Heating Degree Days 9 1  
Month to date heating degree days 17 5  
Since 1 July heating degree days 17 9  
Cooling Degree Days 0 5  
Month to date cooling degree days 13 27  
Year to date cooling degree days 4146 4089  
Growing Degree Days 6 (Base 50)    
Moisture  
Dew Point 35 °F    
Average Humidity 51    
Maximum Humidity 76    
Minimum Humidity 26    
Precipitation  
Precipitation 0.00 in 0.01 in 0.69 in (1987)
Month to date precipitation 0.01 0.06  
Year to date precipitation 2.40 4.39  
Since 1 July precipitation 0.93 1.45  
Snow  
Snow 0.00 in - - ()
Month to date snowfall 0.0  
Year to date snowfall 0.0  
Since 1 July snowfall 0.0  
Snow Depth 0.00 in    
Sea Level Pressure  
Sea Level Pressure 29.91 in    
Wind  
Wind Speed 3 mph (WNW)    
Max Wind Speed 9 mph    
Max Gust Speed 15 mph    
Visibility 10 miles    
Events      
T = Trace of Precipitation, MM = Missing Value Source: NWS Daily Summary

Daily Weather History Graph

Daily Weather History Graph

Search for Another Location

Airport:

Trip Planner

Search our weather history database for the weather conditions in past years. The results will help you decide how hot, cold, wet, or windy it might be!

Date:

Astronomy

Nov. 05, 2011 Rise Set
Actual Time 7:08 AM PDT 5:50 PM PDT
Civil Twilight 6:42 AM PDT 6:16 PM PDT
Nautical Twilight 6:13 AM PDT 6:45 PM PDT
Astronomical Twilight 5:43 AM PDT 7:14 PM PDT
Moon 2:59 PM PDT (11/5) 2:34 AM PDT (11/5)
Length of Visible Light 11h 33m
Length of Day
10h 41m
Waxing Gibbous, 79% of the Moon is Illuminated
Nov 5
Waxing Gibbous
Nov 10
Full
Nov 18
Last Quarter
Nov 24
New
Dec 2
First Quarter

Hourly Weather History & Observations

Time (PDT) Temp. Windchill Dew Point Humidity Pressure Visibility Wind Dir Wind Speed Gust Speed Precip Events Conditions
12:53 AM 53.1 °F - 37.9 °F 57% 29.77 in 10.0 mi West 5.8 mph - N/A   Clear
1:53 AM 50.0 °F - 39.9 °F 68% 29.79 in 10.0 mi West 3.5 mph - N/A   Clear
2:53 AM 48.9 °F - 39.9 °F 71% 29.80 in 10.0 mi Calm Calm - N/A   Clear
3:53 AM 51.1 °F - 37.9 °F 61% 29.82 in 10.0 mi Variable 3.5 mph - N/A   Clear
5:53 AM 48.9 °F - 37.0 °F 64% 29.87 in 10.0 mi NNW 4.6 mph - N/A   Clear
6:53 AM 45.0 °F 41.2 °F 37.0 °F 74% 29.89 in 10.0 mi SSW 6.9 mph - N/A   Clear
7:53 AM 48.9 °F - 37.0 °F 64% 29.92 in 10.0 mi Calm Calm - N/A   Clear
9:53 AM 57.9 °F - 37.0 °F 46% 29.97 in 10.0 mi Calm Calm - N/A   Clear
10:53 AM 61.0 °F - 34.0 °F 36% 29.97 in 10.0 mi SE 9.2 mph - N/A   Clear
12:53 PM 66.0 °F - 30.9 °F 27% 29.95 in 10.0 mi North 4.6 mph - N/A   Clear
1:53 PM 66.0 °F - 30.9 °F 27% 29.93 in 10.0 mi Calm Calm - N/A   Scattered Clouds
2:53 PM 64.9 °F - 32.0 °F 29% 29.92 in 10.0 mi SSE 5.8 mph - N/A   Scattered Clouds
3:53 PM 66.0 °F - 30.9 °F 27% 29.91 in 10.0 mi Calm Calm - N/A   Clear
4:53 PM 66.0 °F - 30.9 °F 27% 29.91 in 10.0 mi North 4.6 mph - N/A   Clear
5:53 PM 63.0 °F - 33.1 °F 33% 29.92 in 10.0 mi NNW 5.8 mph - N/A   Clear
6:53 PM 62.1 °F - 34.0 °F 35% 29.93 in 10.0 mi WNW 5.8 mph - N/A   Clear
7:53 PM 59.0 °F - 34.0 °F 39% 29.94 in 10.0 mi Calm Calm - N/A   Clear
8:53 PM 57.9 °F - 35.1 °F 42% 29.94 in 10.0 mi Calm Calm - N/A   Clear
9:53 PM 55.9 °F - 36.0 °F 47% 29.95 in 10.0 mi Calm Calm - N/A   Clear
10:53 PM 54.0 °F - 37.0 °F 53% 29.96 in 10.0 mi Calm Calm - N/A   Clear
11:53 PM 53.1 °F - 37.0 °F 55% 29.96 in 10.0 mi SW 3.5 mph - N/A   Clear